VK1ET-13 Weather Reports


time (UTC)temp
C
wind
direction
speed
KPH
gust
KPH
rain 1hr
cm
rain 24hr
cm
rain mn
cm
humidity
%
barometer
mb
20260831220043 10 358 3.2 6.4 0.00 0.00 0.00 87 1025.2
20260831215023 9 291 1.6 4.8 0.00 0.00 0.00 92 1025.3
20260831214038 8 88 1.6 3.2 0.00 0.00 0.00 97 1025.2
20260831213032 8 332 0.0 3.2 0.00 0.00 0.00 97 1025.5
20260831212026 8 2 1.6 4.8 0.00 0.00 0.00 98 1025.3
20260831211033 8 213 0.0 3.2 0.00 0.00 0.00 97 1025.3
20260831210021 8 308 0.0 3.2 0.00 0.00 0.00 97 1025.3
20260831205028 7 289 0.0 3.2 0.00 0.00 0.00 96 1025.2
20260831204050 7 150 0.0 3.2 0.00 0.00 0.00 97 1025.1
20260831203023 6 0.0 3.2 0.00 0.00 0.00 97 1025.2
20260831202039 6 144 1.6 3.2 0.00 0.00 0.00 97 1025.2
20260831201018 7 32 0.0 3.2 0.00 0.00 0.00 96 1025.2
20260831200026 7 299 0.0 3.2 0.00 0.00 0.00 96 1025.1
20260831195034 7 289 0.0 3.2 0.00 0.00 0.00 96 1025.1
20260831194022 7 162 0.0 3.2 0.00 0.00 0.00 97 1025.0
20260831193030 7 356 1.6 4.8 0.00 0.00 0.00 97 1025.1
20260831192017 7 352 1.6 3.2 0.00 0.00 0.00 96 1025.1
20260831191025 7 28 0.0 3.2 0.00 0.00 0.00 96 1025.1
20260831190053 7 166 3.2 6.4 0.00 0.00 0.00 96 1025.1
20260831185020 7 168 3.2 4.8 0.00 0.00 0.00 96 1025.2
20260831184034 7 176 3.2 4.8 0.00 0.00 0.00 96 1025.3
20260831183036 8 172 1.6 3.2 0.00 0.00 0.00 96 1025.2
20260831182030 8 113 1.6 3.2 0.00 0.00 0.00 96 1025.3
20260831181039 8 143 1.6 3.2 0.00 0.00 0.00 96 1025.3
20260831180027 8 118 1.6 3.2 0.00 0.00 0.00 95 1025.4
20260831175029 8 37 1.6 4.8 0.00 0.00 0.00 95 1025.7
20260831174024 8 82 1.6 3.2 0.00 0.00 0.00 95 1025.6
20260831173026 8 51 1.6 4.8 0.00 0.00 0.00 95 1025.7
20260831172035 8 93 1.6 4.8 0.00 0.00 0.00 94 1025.6
20260831171024 8 172 1.6 3.2 0.00 0.00 0.00 94 1025.8
20260831170032 8 147 1.6 4.8 0.00 0.00 0.00 94 1025.8
20260831165019 8 174 1.6 4.8 0.00 0.00 0.00 94 1025.9
20260831164028 8 181 1.6 3.2 0.00 0.00 0.00 94 1026.1
20260831163016 8 176 3.2 4.8 0.00 0.00 0.00 93 1026.2
20260831162025 9 180 3.2 4.8 0.00 0.00 0.00 92 1026.3
20260831161032 9 182 1.6 4.8 0.00 0.00 0.00 89 1026.4
20260831160021 10 177 1.6 4.8 0.00 0.00 0.00 89 1026.6
20260831155027 10 180 1.6 3.2 0.00 0.00 0.00 88 1026.7
20260831154035 10 180 3.2 6.4 0.00 0.00 0.00 89 1026.7
20260831153022 10 181 3.2 6.4 0.00 0.00 0.00 91 1027.0
20260831152038 10 178 1.6 4.8 0.00 0.00 0.00 90 1026.9
20260831151018 10 180 3.2 6.4 0.00 0.00 0.00 90 1027.1
20260831150025 10 123 1.6 3.2 0.00 0.00 0.00 89 1027.2
20260831145033 10 178 4.8 6.4 0.00 0.00 0.00 91 1027.2
20260831144020 10 178 4.8 8.0 0.00 0.00 0.00 92 1027.4
20260831143037 10 178 3.2 8.0 0.00 0.00 0.00 90 1027.3
20260831142017 10 156 1.6 6.4 0.00 0.00 0.00 90 1027.4
20260831141022 11 136 1.6 4.8 0.00 0.00 0.00 86 1027.4
20260831140029 11 183 3.2 6.4 0.00 0.00 0.00 86 1027.3
20260831134026 12 175 3.2 6.4 0.00 0.00 0.00 84 1027.4
20260831133032 12 170 3.2 6.4 0.00 0.00 0.00 82 1027.5
20260831132024 12 146 3.2 6.4 0.00 0.00 0.00 81 1027.6
20260831131033 12 117 3.2 9.7 0.00 0.00 0.00 84 1027.8
20260831130030 11 18 0.0 4.8 0.00 0.00 0.00 83 1028.0
20260831125018 13 4 1.6 3.2 0.00 0.00 0.00 77 1028.0
20260831124024 13 0.0 1.6 0.00 0.00 0.00 78 1028.1
20260831123535 13 214 0.0 3.2 0.00 0.00 0.00 77 1028.1
20260831122543 13 0.0 1.6 0.00 0.00 0.00 76 1028.1
20260831121521 13 0.0 0.0 0.00 0.00 0.00 75 1028.2
20260831120529 14 198 0.0 1.6 0.00 0.00 0.00 74 1028.2
20260831115536 15 0.0 0.0 0.00 0.00 0.00 72 1028.3
20260831114529 15 0.0 0.0 0.00 0.00 0.00 71 1028.3
20260831113537 15 225 1.6 4.8 0.00 0.00 0.00 71 1028.4
20260831112518 15 0.0 0.0 0.00 0.00 0.00 71 1028.5
20260831111525 15 0.0 0.0 0.00 0.00 0.00 73 1028.5
20260831110532 15 0.0 0.0 0.00 0.00 0.00 73 1028.3
20260831105518 15 0.0 0.0 0.00 0.00 0.00 74 1028.5
20260831104524 15 0.0 0.0 0.00 0.00 0.00 71 1028.5
20260831103532 15 331 0.0 1.6 0.00 0.00 0.00 71 1028.5
20260831102520 15 0.0 0.0 0.00 0.00 0.00 71 1028.4
20260831101531 16 63 0.0 3.2 0.00 0.00 0.00 68 1028.4
20260831100523 16 0.0 1.6 0.00 0.00 0.00 66 1028.2
20260831095040 17 214 0.0 3.2 0.00 0.00 0.00 65 1028.3
20260831094020 16 229 1.6 4.8 0.00 0.00 0.00 66 1028.2
20260831093026 16 257 1.6 3.2 0.00 0.00 0.00 67 1028.3
20260831091532 16 0.0 1.6 0.00 0.00 0.00 69 1028.3
20260831090519 16 208 0.0 1.6 0.00 0.00 0.00 69 1028.3
20260831085521 16 0.0 3.2 0.00 0.00 0.00 69 1028.2
20260831084527 16 281 0.0 3.2 0.00 0.00 0.00 68 1028.2
20260831083532 17 172 0.0 3.2 0.00 0.00 0.00 67 1028.1
20260831082518 17 155 0.0 3.2 0.00 0.00 0.00 67 1028.2
20260831081524 17 350 1.6 4.8 0.00 0.00 0.00 65 1028.1
20260831080530 18 355 4.8 8.0 0.00 0.00 0.00 64 1028.0
20260831075535 18 352 4.8 9.7 0.00 0.00 0.00 63 1027.8
20260831074518 18 341 6.4 14.5 0.00 0.00 0.00 61 1027.9
20260831073530 19 337 6.4 14.5 0.00 0.00 0.00 59 1027.8
20260831072529 19 340 8.0 12.9 0.00 0.00 0.00 56 1027.8
20260831071533 20 342 8.0 16.1 0.00 0.00 0.00 54 1027.7
20260831070527 20 336 9.7 20.9 0.00 0.00 0.00 53 1027.9
20260831065525 20 325 11.3 17.7 0.00 0.00 0.00 50 1027.9
20260831064531 20 338 8.0 14.5 0.00 0.00 0.00 49 1027.9
20260831063547 20 326 9.7 17.7 0.00 0.00 0.00 49 1028.0
20260831062536 20 324 9.7 14.5 0.00 0.00 0.00 50 1027.8
20260831061522 21 327 9.7 17.7 0.00 0.00 0.00 47 1027.9
20260831060532 20 332 11.3 20.9 0.00 0.00 0.00 43 1027.9
20260831055535 21 334 11.3 20.9 0.00 0.00 0.00 38 1027.9
20260831054534 21 359 8.0 16.1 0.00 0.00 0.00 35 1027.8
20260831053518 21 346 6.4 12.9 0.00 0.00 0.00 40 1027.9
20260831052530 21 348 8.0 17.7 0.00 0.00 0.00 41 1028.1
20260831051529 21 357 8.0 16.1 0.00 0.00 0.00 41 1028.2
20260831050537 21 0 8.0 14.5 0.00 0.00 0.00 38 1028.2
20260831045523 21 342 9.7 17.7 0.00 0.00 0.00 36 1028.2
20260831044537 21 339 6.4 14.5 0.00 0.00 0.00 37 1028.2
20260831043542 21 324 11.3 17.7 0.00 0.00 0.00 39 1028.3
20260831042521 21 345 6.4 12.9 0.00 0.00 0.00 42 1028.4
20260831041523 21 330 11.3 20.9 0.00 0.00 0.00 41 1028.4
20260831040530 21 329 9.7 17.7 0.00 0.00 0.00 40 1028.4
20260831035531 21 341 8.0 14.5 0.00 0.00 0.00 42 1028.5
20260831034535 21 327 9.7 20.9 0.00 0.00 0.00 40 1028.5
20260831033519 21 337 9.7 16.1 0.00 0.00 0.00 41 1028.7
20260831032522 20 334 8.0 16.1 0.00 0.00 0.00 43 1028.7
20260831031534 21 331 11.3 19.3 0.00 0.00 0.00 45 1029.1
20260831030535 20 329 9.7 16.1 0.00 0.00 0.00 45 1029.1
20260831025534 20 343 8.0 12.9 0.00 0.00 0.00 45 1029.1
20260831024525 20 342 6.4 16.1 0.00 0.00 0.00 44 1029.3
20260831023531 20 357 6.4 9.7 0.00 0.00 0.00 42 1029.5
20260831022531 20 347 6.4 11.3 0.00 0.00 0.00 39 1029.6
20260831021536 20 330 8.0 14.5 0.00 0.00 0.00 41 1029.8
20260831020519 20 329 6.4 14.5 0.00 0.00 0.00 43 1029.8
20260831015523 20 318 3.2 8.0 0.00 0.00 0.00 44 1029.9
20260831014529 18 278 1.6 4.8 0.00 0.00 0.00 47 1030.0
20260831013535 18 301 4.8 9.7 0.00 0.00 0.00 46 1030.2
20260831012520 18 301 3.2 8.0 0.00 0.00 0.00 49 1030.4
20260831011525 17 286 1.6 3.2 0.00 0.00 0.00 52 1030.4
20260831010535 16 289 4.8 6.4 0.00 0.00 0.00 57 1030.6
20260831005533 16 268 3.2 8.0 0.00 0.00 0.00 58 1030.7
20260831004517 15 206 3.2 6.4 0.00 0.00 0.00 59 1030.8
20260831003523 15 197 4.8 6.4 0.00 0.00 0.00 62 1030.9
20260831002534 15 191 4.8 9.7 0.00 0.00 0.00 63 1030.9
20260831001540 13 211 3.2 9.7 0.00 0.00 0.00 64 1031.1
20260831000517 13 194 4.8 6.4 0.00 0.00 0.00 65 1031.1
20260830235525 13 184 6.4 9.7 0.00 0.00 0.00 63 1031.1
20260830234528 12 195 4.8 8.0 0.00 0.00 0.00 63 1031.2
20260830233534 12 187 4.8 8.0 0.00 0.00 0.00 65 1031.2
20260830232518 12 174 6.4 11.3 0.00 0.00 0.00 65 1031.3
20260830231524 11 167 6.4 9.7 0.00 0.00 0.00 67 1031.4
20260830230529 11 163 6.4 9.7 0.00 0.00 0.00 68 1031.3
20260830225534 11 169 4.8 9.7 0.00 0.00 0.00 70 1031.3
20260830224519 11 188 3.2 6.4 0.00 0.00 0.00 74 1031.3
20260830223534 10 171 4.8 8.0 0.00 0.00 0.00 79 1031.3
20260830222518 10 190 4.8 6.4 0.00 0.00 0.00 82 1031.3
20260830221522 9 176 3.2 6.4 0.00 0.00 0.00 82 1031.2